Terminal Aerodrome Forecast
Issued by NWS Portland, OR

Home | Current Version | Previous Version | Text Only | Print | Product List | Glossary On
Versions: 1 2 3 4 5 6 7 8 9 10 11 12 13 14 15 16 17 18 19 20 21 22 23 24 25 26 27 28 29 30 31 32 33 34 35 36
000
FTUS46 KPQR 262331
TAFAST
TAF
KAST 262331Z 2700/2724 VRB04KT P6SM SCT012 BKN025 OVC045
      TEMPO 2700/2703 BKN012 OVC045
     FM270600 07003KT 4SM BR SCT009 OVC015
     FM271100 20006KT P6SM OVC015=

USA.gov is the U.S. government's official web portal to all federal, state and local government web resources and services.